Regional Weather Roundup
Issued by NWS

Home | Current Version | Previous Version | Graphics & Text | Print | Product List | Glossary On
Versions: 1 2 3 4 5 6 7 8 9 10 11 12 13 14 15 16 17 18 19 20 21 22 23 24 25 26 27 28 29 30 31 32 33 34 35 36 37 38 39 40 41 42 43 44 45 46 47 48 49 50
000
ASUS43 KFSD 031502
RWRSD

WEATHER ROUNDUP FOR SOUTH DAKOTA
NATIONAL WEATHER SERVICE SIOUX FALLS SD
1000 AM CDT SUN MAY 03 2015

NOTE: "FAIR" INDICATES FEW OR NO CLOUDS BELOW 12,000 FEET WITH NO
SIGNIFICANT WEATHER AND/OR OBSTRUCTIONS TO VISIBILITY.


SDZ001>005-009-010-012>017-031600-
NORTHWEST AND NORTH CENTRAL SOUTH DAKOTA

CITY           SKY/WX    TMP DP  RH WIND       PRES   REMARKS
BUFFALO          N/A     54  37  52 NE14      29.93R
FAITH            N/A     58  35  42 N25       29.93R
MOBRIDGE       MOSUNNY   61  38  42 N22G30    29.88R
$$

SDZ012>016-024>037-041>051-057-063-072>074-031600-
SOUTHWEST AND SOUTH CENTRAL SOUTH DAKOTA

CITY           SKY/WX    TMP DP  RH WIND       PRES   REMARKS
RAPID CTY ARPT SUNNY     58  37  45 N18       29.97R
PIERRE         MOSUNNY   63  35  35 N33G40    29.85R
CUSTER         SUNNY     53  32  44 NE16G29   29.98S
ELLSWORTH AFB  SUNNY     56  37  48 N20G25    29.97R
PHILIP         MOSUNNY   67  35  30 NE24G33   29.89R
PINE RIDGE     SUNNY     57  36  45 N12       29.93R
WINNER         FAIR      65  40  39 N20       29.81R
$$

SDZ004>011-016>023-039-040-031600-
NORTHEAST SOUTH DAKOTA

CITY           SKY/WX    TMP DP  RH WIND       PRES   REMARKS
ABERDEEN       SUNNY     64  38  38 N21G38    29.85R
WATERTOWN      SUNNY     67  54  63 N21       29.79R
BROOKINGS      SUNNY     68  55  64 N8        29.77S
SISSETON         N/A     67  43  41 N25       29.82R
$$

SDZ017-020-022-023-036>040-048>070-031600-
SOUTHEAST SOUTH DAKOTA

CITY           SKY/WX    TMP DP  RH WIND       PRES   REMARKS
SIOUX FALLS    MOSUNNY   69  54  58 S7        29.75S
HURON          SUNNY     68  54  60 N20G29    29.75R
MITCHELL       SUNNY     68  54  60 VRB3      29.75R
YANKTON        SUNNY     70  55  60 S7        29.72S
$$

ABBREVIATIONS USED IN REMARKS
   TC - TEMPERATURE IN CELSIUS
  WCI - WIND CHILL INDEX
   HX - HEAT INDEX
  VSB - VISIBILITY




USA.gov is the U.S. government's official web portal to all federal, state and local government web resources and services.